Skip Page Navigation
NASA JPL Caltech
NASA Logo - Jet Propulsion Laboratory + View the NASA Portal
+ Center for Near-Earth Object Studies
JPL Home Earth Solar System Stars & Galaxies Technology
JPL Solar System Dynamics
BODIES ORBITS EPHEMERIDES TOOLS PHYSICAL DATA DISCOVERY FAQ SITE MAP
IMPORTANT: The SSD Announcement email list is now available. Major changes are coming in the near future, including possible hostname and/or URL changes. To be notified of such changes, subscribe to this email list.

Please visit this page for more details.


JPL Small-Body Database Browser
Search: [ help ]  
27362 (2000 EO)
Classification: Main-belt Asteroid          SPK-ID: 2027362
Ephemeris | Orbit Diagram | Orbital Elements | Mission Design | Physical Parameters | Discovery Circumstances | Close-Approach Data ]

[ show orbit diagram ]
Orbital Elements at Epoch 2458600.5 (2019-Apr-27.0) TDB
Reference: JPL 23 (heliocentric ecliptic J2000)
 Element Value Uncertainty (1-sigma)   Units 
e .03115846005484672 3.4893e-08  
a 3.027229944217774 2.2071e-08 au
q 2.932906120924029 1.0363e-07 au
i 1.677005620101681 4.5214e-06 deg
node 181.3281118530738 0.00013106 deg
peri 57.70949841777957 0.00014956 deg
M 187.4487015388821 7.216e-05 deg
tp 2459522.609027414196
(2021-Nov-04.10902741)
0.00038624 TDB
period 1923.829335563725
5.27
2.1039e-05
5.76e-08
d
yr
n .1871267858042678 2.0464e-09 deg/d
Q 3.12155376751152 2.2758e-08 au
  Orbit Determination Parameters
   # obs. used (total)      950  
   data-arc span      9995 days (27.36 yr)  
   first obs. used      1991-09-07  
   last obs. used      2019-01-18  
   planetary ephem.      DE431  
   SB-pert. ephem.      SB431-N16  
   condition code      0  
   norm. resid. RMS      .58369  
   source      ORB  
   producer      Otto Matic  
   solution date      2019-Jul-13 01:03:08  

Additional Information
 Earth MOID = 1.92063 au 
 Jupiter MOID = 1.85646 au 
 T_jup = 3.243 
[ show covariance matrix ]

Ephemeris | Orbit Diagram | Orbital Elements | Mission Design | Physical Parameters | Discovery Circumstances | Close-Approach Data ]

Physical Parameter Table
Parameter Symbol Value Units Sigma Reference Notes
absolute magnitude H 14.6   n/a MPO324561  

27362 (2000 EO)          Discovered 2000-Mar-02 by Brady, N. at Lake Tekapo
Reference: 20010804/Numbers.arcLast Updated: 2004-04-19

[ show close-approach data ]
Ephemeris | Orbit Diagram | Orbital Elements | Mission Design | Physical Parameters | Discovery Circumstances | Close-Approach Data ]
ABOUT SSD CREDITS/AWARDS PRIVACY/COPYRIGHT GLOSSARY LINKS
FirstGov 2019-Dec-14 16:51 UT
(server date/time)  
NASA Home Page
Site Manager:   Ryan S. Park
Webmaster  Alan B. Chamberlin